Regional Weather Roundup
Issued by NWS Sterling, VA

Home | Current Version | Previous Version | Graphics & Text | Print | Product List | Glossary On
Versions: 1 2 3 4 5 6 7 8 9 10 11 12 13 14 15 16 17 18 19 20 21 22 23 24 25 26 27 28 29 30 31 32 33 34 35 36 37 38 39 40 41 42 43 44 45 46 47 48 49 50
298
ASUS41 KLWX 230511
RWRLWX

REGIONAL WEATHER ROUNDUP
NATIONAL WEATHER SERVICE BALTIMORE MD/WASHINGTON DC
100 AM EDT WED AUG 23 2017

Note: "FAIR" indicates few or no clouds below 12,000 feet
with no significant weather and/or obstructions to visibility.
 TC=TEMPERATURE CELSIUS

 * =Non NWS site. Station does not report precipitation (e.g. rain,
    snow, etc.), thunder, or fog.

DCZ001-MDZ009-015-VAZ040>042-051-053>054-230600-
WASHINGTON METRO

CITY           SKY/WX    TMP DP  RH WIND       PRES   REMARKS
WASHINGTON NAT CLOUDY    84  72  67 NW6       29.83R
DULLES         CLOUDY    78  70  76 NW7       29.84R
ANDREWS AFB    MOCLDY    80  71  75 NW13      29.81S
FT BELVOIR     PTCLDY    82  71  70 NW5       29.82R
QUANTICO       PTCLDY    83  74  74 SW8       29.81F
COLLEGE PARK*  MOCLDY    82  71  68 W5        29.82R
LEESBURG*      CLOUDY    75  72  88 NW5       29.85F
MANASSAS*      MOCLDY    80  71  74 NW5       29.84R
GAITHERSBURG*  CLOUDY    73  70  90 W6        29.86R

$$

MDZ006>007-011-014-230600-
BALTIMORE METRO

CITY           SKY/WX    TMP DP  RH WIND       PRES   REMARKS
BWI AIRPORT    MOCLDY    78  74  87 W6        29.82R
MD SCIENCE CTR   N/A     83  73  72 MISG      29.81S
MARTIN STATE   CLOUDY    79  75  89 W12G20    29.83R
ANNAPOLIS      PTCLDY    84  76  76 W7        29.80S HX  93
FORT MEADE*    CLOUDY    75  72  88 W3        29.85R

$$

MDZ012-015-019>023-230600-
MARYLAND EASTERN SHORE

CITY           SKY/WX    TMP DP  RH WIND       PRES   REMARKS
OCEAN CITY     CLEAR     80  77  90 SW12      29.86F
SALISBURY      CLEAR     78  77  96 S7        29.84F
BAY BRIDGE AP* CLOUDY    82  75  78 SW6       29.80S
CAMBRIDGE*     CLEAR     82  75  78 S9G15     29.82F
EASTON*        CLEAR     83  74  73 SW14      29.85F HX  90

$$

MDZ017>025-230600-
SOUTHERN MARYLAND

CITY           SKY/WX    TMP DP  RH WIND       PRES   REMARKS
PATUXENT RIVER CLEAR     81  75  82 SW10      29.82F
ST INIGOES     CLEAR     81  77  88 S13G18    29.82F
LEONARDTOWN*   CLEAR     79  72  78 SW8       29.84F

$$

MDZ003>005-230600-
NORTH CENTRAL MARYLAND

CITY           SKY/WX    TMP DP  RH WIND       PRES   REMARKS
FREDERICK*     CLOUDY    75  75 100 SE3       29.86F
HAGERSTOWN APT CLOUDY    74  71  91 SW7       29.84F
WESTMINSTER*   CLOUDY    75  72  88 SW6       29.86R

$$

MDZ501>502-230600-
WESTERN MARYLAND

CITY           SKY/WX    TMP DP  RH WIND       PRES   REMARKS
OAKLAND*       CLOUDY    63  63 100 W8        29.94S
CUMBERLAND*    CLOUDY    72  72 100 S5        29.90S

$$

VAZ025>031-230600-
SHENANDOAH VALLEY

CITY           SKY/WX    TMP DP  RH WIND       PRES   REMARKS
WINCHESTER*    CLOUDY    70  68  94 CALM      29.85F
FRONT ROYAL*   CLOUDY    73  70  88 SE5       29.85F
LURAY*         CLOUDY    79  68  69 N5        29.86S
NEW MARKET*    CLOUDY    75  67  74 NE3       29.86S
STAUNTON*      PTCLDY    75  67  75 S3        29.90F
WAYNESBORO*    CLEAR     78  67  69 SW6       29.90F

$$

WVZ021-048>050-054>055-230600-
EASTERN WEST VIRGINIA PANHANDLE

CITY           SKY/WX    TMP DP  RH WIND       PRES   REMARKS
MARTINSBURG    MOCLDY    72  68  87 SW9       29.84F
PETERSBURG*    CLOUDY    73  72  98 CALM      29.88S

$$

VAZ036>039-050-230600-
CENTRAL FOOTHILLS

CITY           SKY/WX    TMP DP  RH WIND       PRES   REMARKS
CHARLOTTESVILL PTCLDY    81  70  69 SW7       29.84F
CULPEPER*      MOCLDY    78  71  78 W3        29.83F
ORANGE*        PTCLDY    77  68  73 CALM      29.84S
GORDONSVILLE*  PTCLDY    75  71  85 SW5       29.84S
WARRENTON*     MOCLDY    79  68  68 NW9       29.83R

$$

VAZ055>057-230600-
NORTH AND CENTRAL PIEDMONT

CITY           SKY/WX    TMP DP  RH WIND       PRES   REMARKS
FREDERICKSBRG* PTCLDY    81  73  78 S8        29.81F
STAFFORD*      PTCLDY    80  73  80 SW5       29.86F

$$

NCZ024-NYZ072-PAZ021-071-VAZ022-071-230600-
OTHER REGIONAL OBSERVATIONS

CITY           SKY/WX    TMP DP  RH WIND       PRES   REMARKS
NEW YORK CITY  RAIN      72  70  93 SW5       29.82F FOG
PHILADELPHIA   RAIN      75  71  87 SW20      29.81F FOG
PITTSBURGH     CLOUDY    67  65  93 CALM      29.89R
ROANOKE        PTCLDY    79  68  69 W7        29.93F
RICHMOND       PTCLDY    79  74  84 SW13      29.85F
RALEIGH        PTCLDY    80  72  76 SW12      29.94F

$$

ANZ530>537-230600-
MARINE OBSERVATIONS

STATION/POSITION TIME  TEMP    WIND        PRES
                       AIR SEA DIR/SP/G
                 (UTC) (F)     (DEG/KT/KT) (MB)
THOMAS PT LIGHT  0500   83 81  220/ 18/ 20   N/A
BALT KEY BRIDGE  0448   83     230/  7/  9 1009.3R
COVE POINT       0448   82     230/ 15/ 19 1010.4F
LEWISETTA        0448   81 84  220/ 11/ 14 1010.1F
SOLOMONS ISLAND  0436   82 82  210/ 14/ 17   N/A
PINEY POINT      0448          230/ 14/ 16   N/A

$$





USA.gov is the U.S. government's official web portal to all federal, state and local government web resources and services.